Regional Weather Roundup
Issued by NWS

Home | Current Version | Previous Version | Graphics & Text | Print | Product List | Glossary On
Versions: 1 2 3 4 5 6 7 8 9 10 11 12 13 14 15 16 17 18 19 20 21 22 23 24 25 26 27 28 29 30 31 32 33 34 35 36 37 38 39 40 41 42 43 44 45 46 47 48 49 50
793
ASUS43 KLOT 290103
RWRIL

ILLINOIS REGIONAL WEATHER ROUNDUP
NATIONAL WEATHER SERVICE CHICAGO/ROMEOVILLE IL
800 PM CDT SUN MAY 28 2017

NOTE: "FAIR" INDICATES FEW OR NO CLOUDS BELOW 12,000 FEET WITH NO
SIGNIFICANT WEATHER AND/OR OBSTRUCTIONS TO VISIBILITY.

* THESE STATIONS ARE NOT UNDER NWS QUALITY CONTROL. THEY ALSO MAY NOT
  REPORT WEATHER SUCH AS PRECIPITATION OR FOG.

ILZ001-002-007-009-015-016-024-290200-
NORTHWEST ILLINOIS

CITY           SKY/WX    TMP DP  RH WIND       PRES   REMARKS
MOLINE         PTCLDY    73  49  42 SW8       29.78S
STERLING*      CLEAR     68  52  56 W7        29.77S
SAVANNA*       CLOUDY    73  48  42 W5        29.76S
$$

ILZ003-004-008-010-011-017-018-290200-
NORTH CENTRAL ILLINOIS

CITY           SKY/WX    TMP DP  RH WIND       PRES   REMARKS
ROCKFORD       PTCLDY    70  47  43 W8        29.77R
FREEPORT*      PTCLDY    68  47  47 W8        29.78S
ROCHELLE*      CLEAR     69  50  50 W6        29.77S
DE KALB*       CLEAR     70  48  45 W10G17    29.78R
PERU*          CLEAR     71  47  42 W9        29.79R
$$

ILZ005-006-012>014-019>023-290200-
NORTHEAST ILLINOIS

CITY           SKY/WX    TMP DP  RH WIND       PRES   REMARKS
CHICAGO-OHARE  PTCLDY    74  46  36 W15       29.74R
CHICAGO-MIDWAY PTCLDY    74  53  48 W13       29.74S
AURORA         CLEAR     71  50  47 W12       29.76R
LANSING*       PTCLDY    70  55  59 W6        29.76R
JOLIET*        PTCLDY    75  50  41 W7        29.77R
WAUKEGAN       PTCLDY    72  47  40 W9G16     29.72R
DUPAGE AIRPORT CLEAR     72  50  45 W12       29.75R
KANKAKEE*      CLOUDY    73  52  46 CALM      29.79R
WHEELING       PTCLDY    73  49  42 NW13G21   29.75R
MORRIS*        CLEAR     72  50  45 W13       29.76R
ROMEOVILLE*    PTCLDY    73  56  56 W16G23    29.77R
NORTHERLY ISL    N/A     59  56  89 E3          N/A
$$

LMZ740>746-290200-
SOUTHERN LAKE MICHIGAN

STATION/POSITION SKY/WX   TEMP    WIND        PRES    VSBY  WAVE
                          AIR SEA DIR/SP/G                  HT/PER
                          (F)     (DEG/KT/KT) (MB)    (MI)  (FT/S)
SOUTHERN BUOY              52 50  180/  6/  6 1006.7          0
WILMETTE HARBOR            55 55  150/  8/ 10   N/A           1
HARRISON CRIB              59     150/  8/  8   N/A
BURNHAM HARBOR             64     250/  3/  6   N/A
CALUMET HARBOR             64     100/  3/  3 1006.9S
BURNS HARBOR               66      CALM  /  1 1008.1R
MICHIGAN CITY              59     200/  4/  4   N/A
MICHIGAN CITY 6N           58 57  180/  2/  4   N/A           1
ST. JOSEPH                 60 61  230/  6/  6 1007.8R         1
$$

ILZ025>027-034>036-040-047-049-050-058-095>099-290200-
WEST-CENTRAL ILLINOIS

CITY           SKY/WX    TMP DP  RH WIND       PRES   REMARKS
QUINCY         CLEAR     72  49  44 W6        29.84S
GALESBURG*     CLEAR     71  49  45 W6        29.81R
MACOMB*        CLEAR     73  49  43 W6        29.84S
JACKSONVILLE*  PTCLDY    69  56  62 SW6       29.84S
PITTSFIELD*    MOCLDY    75  57  54 W5        29.86R
$$

ILZ028>032-037-038-041>044-048-051>054-059>061-290200-
CENTRAL ILLINOIS

CITY           SKY/WX    TMP DP  RH WIND       PRES   REMARKS
PONTIAC        PTCLDY    74  56  52 W12       29.79R
BLOOMINGTON    PTCLDY    74  52  46 W13       29.82R
DECATUR        CLEAR     73  51  46 W8        29.82S
PEORIA         CLEAR     74  45  35 NW6       29.81R
LACON*         CLEAR     72  48  42 W8        29.78S
LINCOLN*       CLEAR     76  54  46 CALM      29.81S
SPRINGFIELD    LGT RAIN  76  55  48 W15G23    29.84R
TAYLORVILLE    PTCLDY    73  53  48 W5        29.84S
$$

ILZ033-039-045-046-055>057-062-063-290200-
EAST-CENTRAL ILLINOIS

CITY           SKY/WX    TMP DP  RH WIND       PRES   REMARKS
CHAMPAIGN      PTCLDY    72  51  47 W8        29.81R
RANTOUL*       CLEAR     74  54  48 W8        29.80S
MATTOON        CLEAR     73  55  53 W7        29.82R
PARIS*         CLEAR     71  56  58 NW8       29.82R
$$

ILZ079-100>102-290200-
SOUTHWEST ILLINOIS

CITY           SKY/WX    TMP DP  RH WIND       PRES   REMARKS
ALTON          PTCLDY    72  55  56 W7        29.86S
BELLEVILLE     CLEAR     73  56  55 W6        29.87F
CAHOKIA*       CLEAR     74  53  48 W5        29.86S
SPARTA*        CLEAR     73  59  60 W3        29.89S
$$

ILZ064>066-069>071-074>076-080>082-084>086-088>090-092>094-290200-
SOUTH-CENTRAL ILLINOIS

CITY           SKY/WX    TMP DP  RH WIND       PRES   REMARKS
CARBONDALE     CLEAR     72  64  76 W5        29.88R
CAIRO*         CLEAR     73  68  85 SW5       29.89R
EFFINGHAM*     CLEAR     71  58  65 W6        29.85S
MARION         CLEAR     73  64  73 CALM      29.89R
MT. VERNON       N/A     72  62  71 W6        29.86S
CENTRALIA*     CLEAR     74  59  58 W7        29.85S
SALEM*         CLEAR     74  55  49 W6        29.86R
$$

ILZ067-068-072-073-078-083-087-091-290200-
SOUTHEAST ILLINOIS

CITY           SKY/WX    TMP DP  RH WIND       PRES   REMARKS
LAWRENCEVILLE  PTCLDY    74  64  71 SW10      29.83S
FLORA*         CLEAR     75  62  63 W7        29.85S
FAIRFIELD*     CLEAR     72  61  68 CALM      29.85R
HARRISBURG*    PTCLDY    73  65  76 SW3       29.88R
ROBINSON*      PTCLDY    73  63  72 W10       29.83S
CARMI*         CLEAR     73  64  73 W6        29.86S
$$

ABBREVIATIONS USED IN REMARKS
   TC - TEMPERATURE IN CELSIUS
  WCI - WIND CHILL INDEX
   HX - HEAT INDEX
  VSB - VISIBILITY
$$





USA.gov is the U.S. government's official web portal to all federal, state and local government web resources and services.